#timestamp,LO_Frequency,Hit,StdDev 
1710309615.8,286047002.8,N
1710309635.6,286046999.8,N
1710309655.5,286046999.7,N
1710309675.3,286046999.9,N
1710309695.1,286047002.8,N
1710309715.9,286047000.1,N
1710309735.7,286046999.8,N
1710309755.6,286047000.2,N
1710309775.4,286047002.8,N
1710309795.2,286047002.6,N
1710309815.1,286047002.5,N
1710309816.0,286047002.5,N
1710309835.8,286046999.9,N
1710309855.7,286047002.5,N
1710309875.5,286047001.9,N
1710309895.3,286047002.3,N
1710309915.2,286047002.4,N
1710309935.0,286047001.9,N
1710309935.9,286047001.9,N
1710309955.8,286047002.3,N
1710309975.6,286047002.5,N
1710309995.4,286047002.3,N
1710310015.3,286047002.2,N
1710310035.1,286047001.9,N
1710310055.8,286047001.5,N
1710310075.7,286047001.6,N
1710310095.5,286047004.4,Y
1710310115.4,286047002.5,P
1710310135.2,286047002.5,P
1710310155.0,286047002.8,P
1710310155.9,286047002.8,Y
1710310175.8,286046998.4,P
1710310195.6,286046999.4,N
1710310215.5,286046998.6,N
1710310235.3,286047001.0,N
1710310255.1,286046998.6,N
1710310275.9,286047000.8,N
1710310295.7,286046998.5,N
1710310315.5,286046998.2,N
1710310335.4,286046998.9,N
1710310355.2,286046998.6,N
1710310375.1,286046999.1,N
1710310406.0,286046999.4,E
1710310415.0,286047001.2,N
1710310415.9,286047001.2,P
1710310435.7,286047001.2,P
1710310455.6,286047000.8,Y
1710310475.4,286046998.6,P
1710310495.3,286046999.0,N
1710310515.1,286046998.7,N
1710310535.8,286046998.7,N
1710310555.7,286046998.4,N
1710310575.5,286046999.2,N
1710310595.4,286046998.8,N
1710310615.2,286046999.3,N
1710310635.0,286046999.1,N
1710310635.9,286046999.1,N
1710310655.8,286046998.8,N
1710310675.6,286046996.5,Y
1710310695.4,286046998.4,P
1710310715.3,286046998.5,P
1710310735.1,286046998.4,P
1710310755.9,286046999.4,N
1710310775.7,286046998.9,N
1710310795.5,286046999.1,N
1710310815.4,286046999.3,N
1710310835.2,286046998.4,Y
1710310855.1,286047000.0,P
1710310856.0,286047000.0,N
1710310875.8,286047000.0,N
1710310895.6,286047000.7,N
1710310915.5,286047001.1,N
1710310935.3,286047001.0,N
1710310955.2,286047000.0,N
1710310975.9,286047001.0,N
1710310995.7,286047001.0,N
1710311015.6,286047000.1,N
1710311035.4,286047000.4,N
1710311055.2,286047000.1,N
1710311075.1,286047000.8,N
1710311076.0,286047000.8,N
1710311095.8,286047002.8,Y
1710311115.7,286047000.4,P
1710311135.5,286047000.9,P
1710311155.3,286047000.7,N
1710311175.2,286047000.5,N
1710311195.0,286046999.9,N
1710311195.9,286046999.9,N
1710311215.8,286047002.4,Y
1710311235.6,286047000.9,P
1710311255.4,286047000.3,N
1710311275.3,286047000.9,P
1710311295.1,286046999.7,N
1710311315.9,286047000.5,N
1710311335.7,286047000.4,N
1710311355.5,286047000.9,N
1710311375.4,286046998.2,Y
1710311395.2,286046998.4,P
1710311415.0,286046998.3,N
1710311415.9,286046998.3,N
1710311435.8,286046998.4,N
1710311455.6,286046998.2,N
1710311475.5,286046998.3,N
1710311495.3,286047000.5,N
1710311515.1,286047000.5,N
1710311535.9,286047000.8,N
1710311555.7,286047001.0,N
1710311575.5,286047000.4,N
1710311595.4,286046998.1,N
1710311615.2,286047000.0,N
1710311635.1,286047001.0,N
1710311636.0,286047001.0,N
1710311655.8,286047000.9,N
1710311675.6,286047001.0,N
1710311695.5,286047000.4,N
1710311715.3,286047001.2,N
1710311735.1,286046998.2,N
1710311755.9,286046998.5,N
1710311775.7,286046998.6,N
1710311795.6,286046998.3,N
1710311815.4,286047000.8,N
1710311835.2,286046998.6,N
1710311855.1,286046998.7,N
1710311856.0,286046998.7,N
1710311875.8,286046998.9,N
1710311895.6,286046998.4,N
1710311915.5,286047000.8,N
1710311935.3,286046999.7,N
1710311955.2,286047000.7,N
1710311975.9,286047000.6,N
1710311995.7,286046999.7,N
1710312015.6,286047000.3,N
1710312035.4,286047000.8,N
1710312055.3,286047001.1,N
1710312075.1,286046998.1,N
1710312076.0,286046998.1,N
1710312095.8,286047000.7,N
1710312115.7,286047000.6,N
1710312135.5,286047000.6,N
1710312155.3,286047000.2,N
1710312175.2,286047000.7,N
1710312195.0,286047000.3,N
1710312195.9,286047000.3,N
1710312215.8,286047000.4,N
1710312235.6,286047000.0,N
1710312255.4,286047000.3,N
1710312275.3,286047001.1,N
1710312295.1,286046998.2,N
1710312315.8,286046998.3,N
1710312335.7,286046998.6,N
1710312355.5,286046998.5,N
1710312375.4,286046998.4,N
1710312395.2,286046998.4,N
1710312415.0,286046998.6,N
1710312415.9,286046998.6,N
1710312435.8,286046998.8,N
1710312455.6,286046998.9,N
1710312475.5,286046999.1,N
1710312495.3,286046999.0,N
1710312515.1,286047001.2,N
1710312535.9,286046998.8,N
1710312555.7,286047001.2,N
1710312575.5,286046998.1,N
1710312595.4,286046998.3,N
1710312615.2,286046999.1,N
1710312635.1,286046999.1,N
1710312636.0,286046999.1,N
1710312655.8,286046998.8,N
1710312675.6,286046999.3,N
1710312695.5,286046998.8,N
1710312715.3,286046999.6,N
1710312735.1,286046999.5,N
1710312755.9,286046998.8,N
1710312775.7,286046998.9,N
1710312795.6,286046998.4,N
1710312815.4,286046999.3,N
1710312835.2,286046996.6,Y
1710312855.1,286047001.2,P
1710312856.0,286047001.2,N
1710312875.8,286046998.1,N
1710312895.7,286046999.0,N
1710312915.5,286046998.7,N
1710312935.3,286046998.8,N
1710312955.2,286046998.6,N
1710312975.0,286046998.1,N
1710312975.9,286046998.1,N
1710312995.7,286046998.6,N
1710313015.6,286046998.8,N
1710313035.4,286046999.4,N
1710313055.3,286046999.0,N
1710313075.1,286046998.8,N
1710313076.0,286046998.8,N
1710313095.8,286046998.9,N
1710313115.7,286046999.3,N
1710313135.5,286046999.4,N
1710313155.4,286046999.0,N
1710313175.2,286046999.1,N
1710313195.0,286046999.4,N
1710313195.9,286046999.4,N
